Weather History for Detroit Metro, MI

Change the Weather History Date:

Friday, December 28, 2012

  Actual Average Record
Temperature  
Mean Temperature 22 °F 27 °F  
Max Temperature 30 °F 33 °F 64 °F (1984)
Min Temperature 13 °F 21 °F -4 °F (1924)
Degree Days  
Heating Degree Days 43 38  
Month to date heating degree days 773 967  
Since 1 July heating degree days 1999 2182  
Cooling Degree Days 0 0  
Month to date cooling degree days 0 0  
Year to date cooling degree days 1156 803  
Moisture  
Dew Point 18 °F    
Average Humidity 75    
Maximum Humidity 92    
Minimum Humidity 58    
Precipitation  
Precipitation T in 0.08 in 0.99 in (1968)
Month to date precipitation 2.51 2.24  
Year to date precipitation 26.98 33.25  
Snow  
Snow 0.10 in 0.30 in 7.20 in (1987)
Month to date snowfall 8.1 8.4  
Since 1 July snowfall 8.5 10.0  
Snow Depth 5.00 in    
Sea Level Pressure  
Sea Level Pressure 30.11 in    
Wind  
Wind Speed 2 mph (East)    
Max Wind Speed 7 mph    
Max Gust Speed 9 mph    
Visibility 8 miles    
Events Snow    
T = Trace of Precipitation, MM = Missing Value Source: NWS Daily Summary

Daily Weather History Graph

Daily Weather History Graph

Search for Another Location

Airport:

Trip Planner

Search our weather history database for the weather conditions in past years. The results will help you decide how hot, cold, wet, or windy it might be!

Date:

Astronomy

Dec. 28, 2012 Rise Set
Actual Time 8:01 AM EST 5:08 PM EST
Civil Twilight 7:29 AM EST 5:40 PM EST
Nautical Twilight 6:54 AM EST 6:16 PM EST
Astronomical Twilight 6:20 AM EST 6:50 PM EST
Moon 5:45 PM EST (12/28) 7:54 AM EST (12/28)
Length of Visible Light 10h 11m
Length of Day
9h 07m
Full, 100% of the Moon is Illuminated
Dec 28
Full
Jan 4
Last Quarter
Jan 11
New
Jan 18
First Quarter
Jan 26
Full

Hourly Weather History & Observations

Time (EST) Temp. Windchill Dew Point Humidity Pressure Visibility Wind Dir Wind Speed Gust Speed Precip Events Conditions
12:53 AM 18.0 °F - 12.9 °F 81% 30.16 in 8.0 mi Calm Calm - N/A   Scattered Clouds
1:53 AM 16.0 °F - 12.9 °F 88% 30.16 in 7.0 mi Calm Calm - N/A   Scattered Clouds
2:53 AM 15.1 °F - 10.9 °F 84% 30.18 in 7.0 mi Calm Calm - N/A   Scattered Clouds
3:53 AM 14.0 °F 8.2 °F 10.0 °F 84% 30.19 in 8.0 mi South 3.5 mph - N/A   Scattered Clouds
4:53 AM 15.1 °F - 12.0 °F 88% 30.18 in 7.0 mi Calm Calm - N/A   Mostly Cloudy
5:53 AM 14.0 °F - 9.0 °F 80% 30.18 in 7.0 mi Calm Calm - N/A   Mostly Cloudy
6:53 AM 16.0 °F - 12.0 °F 84% 30.16 in 7.0 mi Calm Calm - N/A   Overcast
7:53 AM 15.1 °F - 12.0 °F 88% 30.17 in 7.0 mi Calm Calm - N/A   Overcast
8:53 AM 19.0 °F - 15.1 °F 85% 30.17 in 7.0 mi Calm Calm - N/A   Overcast
9:53 AM 21.0 °F - 19.0 °F 92% 30.19 in 8.0 mi Calm Calm - N/A   Overcast
10:53 AM 23.0 °F - 19.9 °F 88% 30.21 in 9.0 mi Calm Calm - N/A   Overcast
11:53 AM 25.0 °F 19.3 °F 19.0 °F 78% 30.19 in 8.0 mi South 4.6 mph - 0.00 in Snow Light Snow
12:03 PM 24.8 °F 19.1 °F 19.4 °F 80% 30.16 in 2.0 mi South 4.6 mph - 0.00 in Snow Light Snow
12:53 PM 26.6 °F - 23.0 °F 86% 30.12 in 2.0 mi Calm Calm - N/A Snow Light Snow
1:31 PM 26.6 °F 22.6 °F 21.2 °F 80% 30.09 in 10.0 mi South 3.5 mph - 0.00 in   Overcast
1:53 PM 28.0 °F - 21.9 °F 78% 30.11 in 10.0 mi Calm Calm - 0.00 in   Mostly Cloudy
2:53 PM 28.9 °F - 21.0 °F 72% 30.08 in 10.0 mi Calm Calm - N/A   Overcast
3:53 PM 30.0 °F 26.5 °F 19.9 °F 66% 30.09 in 10.0 mi ESE 3.5 mph - N/A   Overcast
4:00 PM 30.2 °F 25.4 °F 19.4 °F 64% 30.06 in 10.0 mi East 4.6 mph - N/A   Overcast
4:24 PM 30.2 °F 25.4 °F 19.4 °F 64% 30.05 in 10.0 mi East 4.6 mph - N/A   Overcast
4:53 PM 30.0 °F 24.1 °F 18.0 °F 61% 30.07 in 10.0 mi ESE 5.8 mph - N/A   Overcast
5:53 PM 28.0 °F 22.8 °F 19.0 °F 69% 30.06 in 10.0 mi East 4.6 mph - N/A   Overcast
6:53 PM 27.0 °F 23.0 °F 19.0 °F 72% 30.06 in 10.0 mi East 3.5 mph - N/A   Mostly Cloudy
7:53 PM 26.1 °F - 19.9 °F 78% 30.04 in 10.0 mi Calm Calm - N/A   Mostly Cloudy
8:50 PM 26.6 °F 21.2 °F 21.2 °F 80% 30.00 in 10.0 mi NNE 4.6 mph - N/A   Overcast
8:53 PM 27.0 °F 21.6 °F 21.0 °F 78% 30.03 in 10.0 mi NNE 4.6 mph - N/A   Overcast
9:24 PM 26.6 °F 20.0 °F 21.2 °F 80% 29.99 in 9.0 mi NNE 5.8 mph - N/A   Overcast
9:53 PM 27.0 °F 21.6 °F 21.0 °F 78% 30.01 in 10.0 mi NNE 4.6 mph - N/A   Overcast
10:53 PM 27.0 °F 21.6 °F 21.9 °F 81% 30.00 in 9.0 mi North 4.6 mph - N/A   Overcast
11:53 PM 28.0 °F 20.8 °F 23.0 °F 81% 29.97 in 10.0 mi NNE 6.9 mph - N/A   Overcast